Fort Wayne, IN

5:50 PM EDT on October 17, 2017 (GMT -0400)
Fort Wayne International

Weather History for KFWA - May, 2014

Change the Weather History Date:

Monday, May 19, 2014

  Actual Average Record
Temperature  
Mean Temperature 54 °F 61 °F  
Max Temperature 68 °F 73 °F 94 °F (1911)
Min Temperature 40 °F 50 °F 30 °F (2002)
Degree Days  
Heating Degree Days 11 5  
Month to date heating degree days 174 143  
Since 1 July heating degree days 6943 6025  
Cooling Degree Days 0 2  
Month to date cooling degree days 22 19  
Year to date cooling degree days 23 27  
Growing Degree Days 4 (Base 50)    
Moisture  
Dew Point 41 °F    
Average Humidity 67    
Maximum Humidity 93    
Minimum Humidity 40    
Precipitation  
Precipitation T in 0.15 in 1.31 in (1949)
Month to date precipitation 4.05 2.35  
Year to date precipitation 16.02 12.88  
Snow  
Snow 0.00 in 0.00 in 0.00 in (2002)
Month to date snowfall 0.0 0.0  
Since 1 July snowfall 74.7 33.5  
Snow Depth 0.00 in    
Sea Level Pressure  
Sea Level Pressure 30.23 in    
Wind  
Wind Speed 8 mph (SSE)    
Max Wind Speed 18 mph    
Max Gust Speed 22 mph    
Visibility 10 miles    
Events Rain    
T = Trace of Precipitation, MM = Missing Value Source: NWS Daily Summary

Daily Weather History Graph

Daily Weather History Graph

Search for Another Location

Airport or City:

Trip Planner

Search our weather history database for the weather conditions in past years. The results will help you decide how hot, cold, wet, or windy it might be!

Date:

Astronomy

May. 19, 2014 Rise Set
Actual Time 6:19 AM EDT 8:55 PM EDT
Civil Twilight 5:47 AM EDT 9:27 PM EDT
Nautical Twilight 5:08 AM EDT 10:07 PM EDT
Astronomical Twilight 4:23 AM EDT 10:51 PM EDT
Moon 12:42 AM EDT (5/19) 11:16 AM EDT (5/19)
Length of Visible Light 15h 39m
Length of Day
14h 36m
Waning Gibbous, 71% of the Moon is Illuminated
May 19
Waning Gibbous
May 21
Last Quarter
May 28
New
Jun 5
First Quarter
Jun 13
Full

Hourly Weather History & Observations

Time (EDT) Temp. Dew Point Humidity Pressure Visibility Wind Dir Wind Speed Gust Speed Precip Events Conditions
12:54 AM 48.0 °F 39.0 °F 71% 30.27 in 10.0 mi Calm Calm - N/A   Clear
1:54 AM 46.0 °F 37.9 °F 73% 30.26 in 10.0 mi Calm Calm - N/A   Clear
2:54 AM 44.1 °F 39.0 °F 82% 30.26 in 10.0 mi Calm Calm - N/A   Partly Cloudy
3:54 AM 42.1 °F 37.9 °F 85% 30.28 in 10.0 mi Calm Calm - N/A   Scattered Clouds
4:54 AM 43.0 °F 37.9 °F 82% 30.29 in 10.0 mi Calm Calm - N/A   Scattered Clouds
5:54 AM 42.1 °F 37.0 °F 82% 30.30 in 10.0 mi Calm Calm - N/A   Scattered Clouds
6:54 AM 41.0 °F 39.0 °F 93% 30.31 in 10.0 mi Calm Calm - N/A   Mostly Cloudy
7:54 AM 48.0 °F 43.0 °F 83% 30.31 in 10.0 mi Calm Calm - N/A   Mostly Cloudy
9:54 AM 59.0 °F 39.9 °F 49% 30.32 in 10.0 mi SSE 8.1 mph - N/A   Mostly Cloudy
10:54 AM 62.1 °F 39.9 °F 44% 30.30 in 10.0 mi SSE 9.2 mph - N/A   Scattered Clouds
11:54 AM 64.0 °F 39.9 °F 41% 30.29 in 10.0 mi South 16.1 mph 21.9 mph N/A   Scattered Clouds
12:54 PM 64.9 °F 41.0 °F 42% 30.28 in 10.0 mi South 12.7 mph - N/A   Scattered Clouds
1:54 PM 66.0 °F 41.0 °F 40% 30.25 in 10.0 mi SSE 12.7 mph 16.1 mph N/A   Mostly Cloudy
2:54 PM 66.0 °F 41.0 °F 40% 30.23 in 10.0 mi SSE 13.8 mph 18.4 mph N/A   Mostly Cloudy
3:54 PM 66.9 °F 42.1 °F 40% 30.20 in 10.0 mi SSE 11.5 mph - N/A   Mostly Cloudy
4:54 PM 66.9 °F 43.0 °F 42% 30.18 in 10.0 mi South 13.8 mph - N/A   Mostly Cloudy
5:54 PM 66.9 °F 41.0 °F 39% 30.17 in 10.0 mi SSE 13.8 mph - N/A   Mostly Cloudy
6:54 PM 66.9 °F 41.0 °F 39% 30.13 in 10.0 mi South 15.0 mph - N/A   Mostly Cloudy
7:54 PM 64.9 °F 43.0 °F 45% 30.12 in 10.0 mi SSE 9.2 mph - N/A   Mostly Cloudy
8:54 PM 61.0 °F 44.1 °F 54% 30.11 in 10.0 mi SSE 8.1 mph - N/A   Mostly Cloudy
9:54 PM 62.1 °F 43.0 °F 50% 30.10 in 10.0 mi SE 9.2 mph - N/A   Overcast
10:54 PM 61.0 °F 43.0 °F 52% 30.12 in 10.0 mi SE 8.1 mph - N/A   Overcast
11:54 PM 60.1 °F 44.1 °F 55% 30.12 in 10.0 mi SE 8.1 mph - 0.00 in Rain Light Rain